[[{"header":{"parameterUnit":"m.s-1","parameterCategory":2,"la1":30.2992,"la2":30.254,"lo1":-89.0895,"lo2":-89.0443,"dy":0.0025,"dx":0.0025,"nx":19,"ny":19,"refTime":"2026-05-02T09:00:00:Z","depth":"0","parameterNumber":2,"parameterNumberName":"U-component_of_CURRENTS"},"data":[0,0,0,0.4589,0.4591,0.468,0.4681,0.483,0.4831,0,0,0,0,0,0,0,0,0,0,0,0.4554,0.4554,0.4589,0.4591,0.468,0.4681,0.4829,0.4831,0,0,0,0,0,0,0,0,0,0,0,0.4554,0.4554,0.4554,0.4591,0.468,0.4681,0.4829,0.4755,0,0,0,0,0,0,0,0,0,0,0.4665,0.4593,0.4554,0.4554,0.4592,0.468,0.4681,0.4752,0.476,0.4796,0,0.48,0,0.4818,0.4841,0.4841,0,0,0,0.4601,0.4585,0.464,0.4554,0.4592,0.468,0.4643,0.4756,0.4766,0.4807,0.4802,0.4808,0.4821,0.4842,0.4842,0.5015,0.5015,0,0,0.4596,0.4546,0.4633,0.4646,0.4605,0.464,0.4645,0.4762,0.4749,0.4803,0.4811,0.4823,0.4843,0.4844,0.5014,0.5015,0,0,0,0.4575,0.4542,0.4593,0.4639,0.4653,0.4642,0.4649,0.4744,0.4769,0.4813,0.4825,0.4844,0.4845,0.5013,0.5014,0.5035,0,0,0,0.4573,0.453,0.459,0.4558,0.465,0.4687,0.4628,0.4761,0.4775,0.4824,0.4844,0.4847,0.5012,0.5014,0.5033,0.5048,0,0,0,0.4552,0.4527,0.4541,0.4556,0.4594,0.4685,0.4716,0.4764,0.4782,0.4841,0.4847,0.5012,0.5013,0.503,0.5045,0.5162,0,0,0,0.4495,0.4499,0.4539,0.4547,0.4593,0.4693,0.4715,0.4777,0.4826,0.4844,0.5012,0.5014,0.503,0.5042,0.5158,0.5049,0.5058,0,0,0.4476,0.4495,0.4506,0.4545,0.4626,0.4682,0.4773,0.4835,0.4871,0.4976,0.498,0.5033,0.5044,0.5161,0.5157,0.5162,0,0,0,0.4486,0.4504,0.4535,0.4582,0.4662,0.4758,0.4825,0.4882,0.4982,0.4908,0.5066,0.5073,0.5146,0.5073,0.5078,0.4963,0.5023,0.5023,0.5022,0.441,0.4476,0.4514,0.4614,0.4686,0.4818,0.4908,0.5005,0.5021,0.5075,0.5114,0.5247,0.5168,0.5171,0.5053,0.5138,0.5138,0.5138,0.5138,0.4404,0.4427,0.4518,0.4583,0.4702,0.4797,0.4996,0.5047,0.5221,0.518,0.525,0.5126,0.5177,0.505,0.514,0.514,0.5139,0.5139,0.5139,0.4359,0.438,0.4423,0.4522,0.4633,0.4787,0.4957,0.5122,0.5246,0.5322,0.5303,0.53,0.5174,0.5378,0.5379,0.538,0.538,0.5381,0.5381,0.4279,0.4334,0.4363,0.4473,0.4522,0.4671,0.4955,0.5094,0.5285,0.534,0.534,0.5199,0.5322,0.5295,0.539,0.5389,0.5387,0.5386,0.5386,0.4237,0.4257,0.4296,0.4332,0.444,0.4487,0.4796,0.5045,0.5245,0.5293,0.5219,0.5371,0.5372,0.5365,0.5341,0.5443,0.5443,0.5443,0.5443,0.4184,0.4208,0.4215,0.4237,0.4298,0.4401,0.4475,0.4704,0.4989,0.5063,0.518,0.5046,0.5049,0.5024,0.5025,0.4992,0.5004,0.5003,0.5003,0.4153,0.4168,0.4131,0.4158,0.42,0.426,0.421,0.4224,0.4634,0.4978,0.505,0.5069,0.4865,0.4879,0.4829,0.4839,0.4781,0,0]},{"header":{"parameterUnit":"m.s-1","parameterCategory":2,"la1":30.2992,"la2":30.254,"lo1":-89.0895,"lo2":-89.0443,"dy":0.0025,"dx":0.0025,"nx":19,"ny":19,"refTime":"2026-05-02T09:00:00:Z","depth":"0","parameterNumber":3,"parameterNumberName":"V-component_of_CURRENTS"},"data":[0,0,0,0.0016,0.0015,-0.0056,-0.0056,-0.0213,-0.0214,0,0,0,0,0,0,0,0,0,0,0,0.0045,0.0044,0.0016,0.0014,-0.0056,-0.0056,-0.0213,-0.0214,0,0,0,0,0,0,0,0,0,0,0,0.0045,0.0044,0.0044,0.0014,-0.0055,-0.0056,-0.0212,-0.0144,0,0,0,0,0,0,0,0,0,0,-0.0069,-0.0002,0.0044,0.0044,0.0014,-0.0055,-0.0056,-0.0141,-0.0149,-0.0198,0,-0.02,0,-0.0212,-0.0226,-0.0226,0,0,0,0.0007,0.0006,-0.0042,0.0044,0.0013,-0.0055,-0.0026,-0.0145,-0.0154,-0.0209,-0.0202,-0.0208,-0.0215,-0.0227,-0.0228,-0.0233,-0.0232,0,0,0.0011,0.0053,-0.0035,-0.0047,0.0004,-0.0024,-0.0028,-0.015,-0.014,-0.0203,-0.0211,-0.0217,-0.0228,-0.0229,-0.0234,-0.0233,0,0,0,0.0027,0.0056,0.0014,-0.0041,-0.0049,-0.0026,-0.0031,-0.0134,-0.0156,-0.0213,-0.0219,-0.0229,-0.0231,-0.0235,-0.0234,-0.0057,0,0,0,0.0029,0.0065,0.0016,0.0043,-0.0046,-0.0076,-0.0012,-0.0147,-0.0162,-0.0218,-0.0229,-0.0233,-0.0237,-0.0234,-0.0065,0.0038,0,0,0,0.0046,0.0068,0.0056,0.0045,0.0014,-0.0075,-0.0102,-0.015,-0.0166,-0.0226,-0.0233,-0.0238,-0.0235,-0.0072,0.0025,0.0166,0,0,0,0.0094,0.0127,0.0058,0.0102,0.0015,0.002,-0.0101,-0.0115,-0.0153,-0.023,-0.0237,-0.0234,-0.0074,0.0017,0.0157,0.0374,0.0431,0,0,0.0166,0.0138,0.0164,0.01,0.0151,0.0029,0.0092,-0.0024,-0.0127,-0.0207,-0.0207,-0.0062,0.0024,0.0164,0.054,0.0593,0,0,0,0.0207,0.0226,0.023,0.0241,0.0207,0.0217,0.01,0.0057,0.0,-0.0136,-0.0053,-0.0004,0.0079,0.0191,0.0234,0.0036,-0.022,-0.0221,-0.0221,0.0348,0.033,0.0397,0.0377,0.0387,0.0339,0.0346,0.0266,0.0118,0.0135,0.0146,0.0384,0.0506,0.054,0.0333,0.0138,0.0139,0.014,0.014,0.0476,0.0516,0.0521,0.0575,0.0572,0.0607,0.0564,0.0492,0.0497,0.033,0.0401,0.0379,0.0597,0.0359,0.0152,0.015,0.0148,0.0147,0.0146,0.0557,0.0581,0.0608,0.0704,0.0796,0.0781,0.0933,0.0826,0.0693,0.0746,0.084,0.0838,0.0625,0.0764,0.0766,0.0767,0.0768,0.0768,0.0769,0.063,0.0663,0.0755,0.0847,0.0941,0.1073,0.1142,0.1209,0.1203,0.1083,0.1084,0.0711,0.0575,0.0546,0.0786,0.0783,0.0781,0.0779,0.0778,0.0729,0.0736,0.0884,0.0984,0.1226,0.1493,0.1552,0.1768,0.1761,0.1808,0.1254,0.1269,0.1241,0.1206,0.1193,0.1586,0.1586,0.1586,0.1587,0.0791,0.0806,0.102,0.1215,0.1473,0.1689,0.2141,0.2266,0.1958,0.1718,0.1468,0.1325,0.1301,0.1261,0.1225,0.1204,0.1591,0.1591,0.159,0.0869,0.0921,0.1096,0.1281,0.1588,0.1947,0.2424,0.2658,0.2081,0.1553,0.1152,0.1153,0.0887,0.0866,0.0747,0.0713,0.0656,0,0]}],[{"header":{"parameterUnit":"m.s-1","parameterCategory":2,"la1":30.2992,"la2":30.254,"lo1":-89.0895,"lo2":-89.0443,"dy":0.0025,"dx":0.0025,"nx":19,"ny":19,"refTime":"2026-05-02T09:00:00:Z","depth":"2","parameterNumber":2,"parameterNumberName":"U-component_of_CURRENTS"},"data":[0,0,0,0.3319,0.3323,0.3478,0.3479,0.358,0.3581,0,0,0,0,0,0,0,0,0,0,0,0.3256,0.3258,0.3319,0.3324,0.3478,0.3479,0.358,0.3581,0,0,0,0,0,0,0,0,0,0,0,0.3255,0.3257,0.3259,0.3324,0.3478,0.3479,0.358,0.3481,0,0,0,0,0,0,0,0,0,0,0.334,0.3306,0.3257,0.3259,0.3325,0.3478,0.3479,0.3477,0.3487,0.349,0,0.3534,0,0.3575,0.3588,0.3588,0,0,0,0.3298,0.3298,0.3346,0.3259,0.3327,0.3478,0.3401,0.3483,0.3494,0.3503,0.3536,0.3541,0.3577,0.3589,0.3589,0.3747,0.3747,0,0,0.3289,0.3273,0.3339,0.3354,0.3392,0.3397,0.3407,0.3491,0.3507,0.3536,0.3544,0.3578,0.3589,0.359,0.3746,0.3747,0,0,0,0.3282,0.3267,0.3314,0.3348,0.3394,0.3402,0.3413,0.3503,0.3522,0.3545,0.358,0.359,0.3591,0.3745,0.3746,0.3806,0,0,0,0.3276,0.3265,0.331,0.33,0.3393,0.3465,0.3423,0.3515,0.3527,0.3579,0.359,0.3592,0.3744,0.3745,0.3802,0.3826,0,0,0,0.3245,0.3261,0.3288,0.3299,0.338,0.3465,0.3488,0.3518,0.3549,0.3589,0.3593,0.3743,0.3745,0.3798,0.382,0.3915,0,0,0,0.3207,0.3229,0.3288,0.3326,0.3379,0.3481,0.3488,0.3557,0.3593,0.3591,0.3744,0.3746,0.3797,0.3817,0.3911,0.3757,0.3765,0,0,0.32,0.3229,0.3247,0.3303,0.3391,0.3456,0.356,0.3606,0.3629,0.3702,0.3707,0.3803,0.382,0.3914,0.3887,0.3891,0,0,0,0.322,0.3246,0.3281,0.3354,0.3441,0.3544,0.3615,0.3672,0.3764,0.3671,0.3833,0.3842,0.3899,0.3798,0.3802,0.3757,0.3756,0.3756,0.3756,0.3195,0.3242,0.3289,0.3374,0.346,0.3614,0.3708,0.3804,0.3813,0.3877,0.3912,0.4053,0.3946,0.3947,0.3938,0.3938,0.3939,0.3939,0.3939,0.3184,0.3203,0.3299,0.3362,0.3495,0.3607,0.3811,0.3871,0.4046,0.4005,0.4058,0.3892,0.3954,0.3944,0.3943,0.3943,0.3942,0.3942,0.3941,0.315,0.3162,0.3212,0.3315,0.3458,0.3629,0.3804,0.3976,0.4095,0.4174,0.4092,0.4088,0.4089,0.4217,0.4218,0.4219,0.4219,0.4219,0.422,0.3083,0.3128,0.3151,0.3277,0.3357,0.3538,0.3827,0.3953,0.4108,0.4157,0.4155,0.4147,0.4138,0.4107,0.4228,0.4227,0.4226,0.4225,0.4224,0.3,0.3028,0.3072,0.3125,0.3284,0.3334,0.3632,0.384,0.4033,0.4065,0.4154,0.4153,0.4125,0.4119,0.4088,0.4198,0.4198,0.4198,0.4198,0.2932,0.2946,0.2977,0.302,0.3109,0.3239,0.3251,0.3441,0.3755,0.3853,0.3868,0.3731,0.374,0.3683,0.3687,0.3644,0.3639,0.3638,0.3637,0.2854,0.2907,0.2868,0.2925,0.3006,0.3052,0.2951,0.2939,0.3245,0.3612,0.3741,0.4166,0.3998,0.4,0.3937,0.3934,0.3875,0,0]},{"header":{"parameterUnit":"m.s-1","parameterCategory":2,"la1":30.2992,"la2":30.254,"lo1":-89.0895,"lo2":-89.0443,"dy":0.0025,"dx":0.0025,"nx":19,"ny":19,"refTime":"2026-05-02T09:00:00:Z","depth":"2","parameterNumber":3,"parameterNumberName":"V-component_of_CURRENTS"},"data":[0,0,0,0.0279,0.0278,0.0199,0.0198,0.0079,0.0078,0,0,0,0,0,0,0,0,0,0,0,0.0304,0.0303,0.0279,0.0278,0.0199,0.0198,0.0079,0.0078,0,0,0,0,0,0,0,0,0,0,0,0.0304,0.0304,0.0303,0.0277,0.0199,0.0198,0.0079,0.0141,0,0,0,0,0,0,0,0,0,0,0.0219,0.0262,0.0304,0.0303,0.0277,0.0199,0.0198,0.0144,0.0137,0.0112,0,0.0103,0,0.0092,0.007,0.007,0,0,0,0.0268,0.0268,0.0234,0.0303,0.0276,0.0199,0.0232,0.014,0.0132,0.0103,0.0101,0.0097,0.009,0.0069,0.0069,0.0059,0.0059,0,0,0.0273,0.0298,0.024,0.023,0.0259,0.0234,0.0229,0.0136,0.0135,0.0101,0.0094,0.0088,0.0069,0.0068,0.0058,0.0059,0,0,0,0.0291,0.0301,0.0271,0.0235,0.0224,0.0232,0.0226,0.0139,0.0126,0.0093,0.0086,0.0068,0.0067,0.0057,0.0058,0.0202,0,0,0,0.0294,0.0312,0.0273,0.0288,0.0226,0.0187,0.0233,0.0132,0.0122,0.0087,0.0068,0.0065,0.0056,0.0058,0.0196,0.0281,0,0,0,0.0307,0.0314,0.0303,0.029,0.0259,0.0188,0.0169,0.013,0.0118,0.007,0.0065,0.0056,0.0058,0.0191,0.0271,0.0352,0,0,0,0.0337,0.0353,0.0304,0.0327,0.0259,0.0264,0.017,0.0153,0.0121,0.0067,0.0056,0.0058,0.019,0.0265,0.0346,0.0399,0.0432,0,0,0.038,0.0359,0.0375,0.033,0.0368,0.0274,0.0317,0.0221,0.0138,0.0082,0.0081,0.0198,0.0271,0.0351,0.05,0.053,0,0,0,0.0405,0.0419,0.042,0.0428,0.0405,0.0417,0.0322,0.028,0.0227,0.0128,0.0193,0.0235,0.0281,0.03,0.0324,0.0067,0.0066,0.0066,0.0066,0.048,0.0481,0.0536,0.0539,0.0543,0.0506,0.0504,0.0431,0.0321,0.0322,0.0348,0.0504,0.0526,0.0544,0.0329,0.033,0.033,0.0331,0.0331,0.0578,0.0621,0.0636,0.0686,0.0691,0.0717,0.0677,0.0614,0.0595,0.0477,0.0513,0.0445,0.0579,0.0342,0.034,0.0339,0.0338,0.0337,0.0336,0.0636,0.0667,0.0695,0.079,0.087,0.0864,0.0972,0.0879,0.0754,0.0783,0.0763,0.076,0.0602,0.0785,0.0786,0.0787,0.0787,0.0788,0.0788,0.0687,0.0729,0.0818,0.0911,0.0997,0.1109,0.1142,0.1151,0.1064,0.0944,0.0943,0.0657,0.0642,0.0628,0.08,0.0798,0.0797,0.0795,0.0795,0.0773,0.0788,0.0932,0.1026,0.1245,0.1445,0.1449,0.1467,0.1414,0.1379,0.1027,0.1017,0.0978,0.0956,0.0949,0.1194,0.1194,0.1194,0.1194,0.0827,0.0847,0.1053,0.1237,0.1459,0.1608,0.1807,0.173,0.15,0.131,0.1305,0.1208,0.119,0.1153,0.1127,0.1119,0.1409,0.141,0.141,0.0903,0.0955,0.1118,0.1296,0.1565,0.1795,0.1967,0.1873,0.152,0.1415,0.1311,0.1215,0.1051,0.1031,0.0948,0.0918,0.0892,0,0]}],[{"header":{"parameterUnit":"m.s-1","parameterCategory":2,"la1":30.2992,"la2":30.254,"lo1":-89.0895,"lo2":-89.0443,"dy":0.0025,"dx":0.0025,"nx":19,"ny":19,"refTime":"2026-05-02T09:00:00:Z","depth":"4","parameterNumber":2,"parameterNumberName":"U-component_of_CURRENTS"},"data":[0,0,0,0.1861,0.1866,0.2068,0.2068,0.2242,0.2243,0,0,0,0,0,0,0,0,0,0,0,0.1788,0.1789,0.1861,0.1866,0.2068,0.2068,0.2242,0.2243,0,0,0,0,0,0,0,0,0,0,0,0.1787,0.1789,0.1791,0.1867,0.2067,0.2068,0.2241,0.2107,0,0,0,0,0,0,0,0,0,0,0.192,0.1887,0.1788,0.1791,0.1868,0.2067,0.2068,0.2101,0.2115,0.213,0,0.2177,0,0.2222,0.2254,0.2255,0,0,0,0.1854,0.1876,0.1916,0.1791,0.187,0.2067,0.1973,0.211,0.2125,0.2149,0.218,0.2187,0.2225,0.2255,0.2256,0.2431,0.2432,0,0,0.1842,0.1834,0.1906,0.1927,0.1942,0.1967,0.198,0.212,0.2151,0.2181,0.2192,0.2227,0.2256,0.2258,0.2431,0.2432,0,0,0,0.1819,0.1827,0.1866,0.1918,0.1967,0.1973,0.1988,0.2145,0.2155,0.2194,0.2229,0.2257,0.2259,0.243,0.2431,0.248,0,0,0,0.1812,0.1814,0.1861,0.1859,0.1965,0.2076,0.2009,0.2145,0.2163,0.2229,0.2257,0.2261,0.2429,0.243,0.2477,0.2509,0,0,0,0.1775,0.181,0.1836,0.1858,0.195,0.2074,0.2094,0.215,0.2184,0.2255,0.2261,0.2429,0.243,0.2474,0.2504,0.2605,0,0,0,0.1753,0.1789,0.1837,0.19,0.1949,0.2048,0.2093,0.2184,0.2244,0.2258,0.2429,0.2431,0.2473,0.2501,0.2601,0.2279,0,0,0,0.177,0.1792,0.1825,0.1871,0.1956,0.2019,0.2133,0.2232,0.2275,0.2373,0.2378,0.2478,0.2504,0.2604,0.238,0,0,0,0,0.181,0.1834,0.1869,0.1945,0.2022,0.2131,0.2222,0.2279,0.2405,0.2324,0.2498,0.2514,0.2576,0.2376,0.2439,0.2439,0.2439,0.2438,0.2438,0.18,0.1846,0.1906,0.1984,0.2067,0.2213,0.2304,0.2405,0.2434,0.2506,0.2568,0.2698,0.2487,0.2579,0.2579,0.2579,0.258,0.258,0.258,0.1799,0.1819,0.1925,0.2003,0.2131,0.225,0.2422,0.2485,0.2661,0.2636,0.2694,0.2457,0.2585,0.2584,0.2583,0.2583,0.2582,0.2582,0.2582,0.1757,0.1767,0.1855,0.1977,0.2135,0.2299,0.2454,0.2604,0.272,0.2793,0.2638,0.2761,0.2744,0.2856,0.2857,0.2858,0.2858,0.2859,0.2859,0.1659,0.1736,0.1803,0.1952,0.2051,0.2235,0.2503,0.2612,0.2776,0.2682,0.2849,0.2792,0.2783,0.2762,0.2868,0.2866,0.2865,0.2864,0.2864,0.1555,0.1625,0.1689,0.1781,0.1978,0.2082,0.2377,0.2531,0.2643,0.2653,0.2622,0.2632,0.2599,0.2596,0.2566,0.2619,0.2615,0.2611,0,0.1475,0.1514,0.1587,0.1669,0.1769,0.1972,0.2055,0.2237,0.2402,0.2311,0.264,0.2597,0.2603,0.2556,0.2548,0.2506,0,0,0,0.14,0.1439,0.1448,0.1554,0.1647,0.1819,0.206,0.2056,0.237,0.2398,0.2519,0.2543,0.2729,0.2895,0.287,0.2859,0.2824,0,0]},{"header":{"parameterUnit":"m.s-1","parameterCategory":2,"la1":30.2992,"la2":30.254,"lo1":-89.0895,"lo2":-89.0443,"dy":0.0025,"dx":0.0025,"nx":19,"ny":19,"refTime":"2026-05-02T09:00:00:Z","depth":"4","parameterNumber":3,"parameterNumberName":"V-component_of_CURRENTS"},"data":[0,0,0,0.0327,0.0327,0.0299,0.0299,0.0235,0.0234,0,0,0,0,0,0,0,0,0,0,0,0.0335,0.0335,0.0327,0.0327,0.0299,0.0299,0.0235,0.0234,0,0,0,0,0,0,0,0,0,0,0,0.0335,0.0335,0.0335,0.0327,0.0299,0.0299,0.0235,0.0261,0,0,0,0,0,0,0,0,0,0,0.0291,0.0315,0.0335,0.0335,0.0327,0.0299,0.0299,0.0263,0.026,0.0241,0,0.0241,0,0.0239,0.023,0.023,0,0,0,0.032,0.0318,0.0302,0.0335,0.0327,0.0299,0.031,0.0261,0.0257,0.0237,0.024,0.0238,0.0238,0.0229,0.0229,0.0217,0.0218,0,0,0.0321,0.0336,0.0304,0.03,0.0323,0.0311,0.0309,0.0259,0.0262,0.024,0.0236,0.0237,0.0229,0.0228,0.0217,0.0217,0,0,0,0.0331,0.0337,0.0322,0.0302,0.0301,0.031,0.0308,0.0264,0.0257,0.0236,0.0236,0.0229,0.0228,0.0217,0.0217,0.0308,0,0,0,0.0331,0.0343,0.0323,0.0332,0.0302,0.0289,0.0314,0.026,0.0255,0.0237,0.0229,0.0227,0.0216,0.0217,0.0305,0.0362,0,0,0,0.0335,0.0343,0.0339,0.0333,0.0324,0.029,0.028,0.0259,0.0255,0.0229,0.0227,0.0216,0.0217,0.0302,0.0356,0.0369,0,0,0,0.0351,0.0363,0.034,0.0358,0.0324,0.0336,0.028,0.0281,0.0267,0.0228,0.0216,0.0217,0.0301,0.0352,0.0366,0.0391,0,0,0,0.0376,0.0366,0.0378,0.0357,0.0392,0.0339,0.037,0.0321,0.027,0.0228,0.0228,0.0306,0.0355,0.0369,0.0439,0,0,0,0,0.0393,0.0406,0.0411,0.0426,0.0419,0.0429,0.0381,0.0351,0.0317,0.0265,0.0297,0.0326,0.0331,0.0336,0.0221,0.0221,0.0221,0.0221,0.0221,0.0435,0.0442,0.0484,0.0497,0.0506,0.0488,0.0481,0.0431,0.0373,0.0369,0.0393,0.0459,0.0468,0.0373,0.0374,0.0374,0.0375,0.0375,0.0375,0.0493,0.0524,0.0548,0.0593,0.0601,0.0624,0.0583,0.0543,0.0515,0.046,0.046,0.0424,0.0384,0.0382,0.0381,0.038,0.0379,0.0379,0.0378,0.0522,0.0545,0.058,0.0661,0.0723,0.0723,0.0775,0.0713,0.0614,0.0622,0.059,0.0514,0.0513,0.061,0.0611,0.0611,0.0611,0.0612,0.0612,0.0539,0.0581,0.0656,0.0739,0.0813,0.0887,0.0891,0.0867,0.0766,0.0707,0.0649,0.0538,0.053,0.0525,0.0617,0.0616,0.0615,0.0615,0.0615,0.0577,0.0604,0.0719,0.0802,0.0968,0.1026,0.104,0.0965,0.0928,0.0847,0.0728,0.0721,0.0686,0.0674,0.0672,0.0812,0.0813,0.0813,0,0.0601,0.0622,0.0786,0.0928,0.1062,0.1111,0.1117,0.1067,0.0915,0.0904,0.0889,0.0758,0.075,0.0712,0.0703,0.0703,0,0,0,0.0636,0.0686,0.0802,0.0947,0.1108,0.1117,0.1116,0.1076,0.0952,0.091,0.083,0.0826,0.0741,0.0632,0.0561,0.0552,0.0539,0,0]}]]